Location: Koussan�
(15.2012°N, 12.5548°W)
Time: 01:52:41
(UTC+00:00)

BREEZE-M DEB (TANK) - Visible Passes

Search period start: 27 February 2021 00:00
Search period end: 09 March 2021 00:00
Orbit: 318 x 17144 km, 49.4° (Epoch: 26 February)

Date Brightness Start Highest point End Pass type
(mag) Time Alt. Az. Time Alt. Az. Time Alt. Az.
27 Feb 7.3 05:05:14 10° SW 06:30:39 40° WNW 06:43:13 10° N visible
28 Feb 8.4 00:07:46 10° SSW 02:42:31 60° SE 03:08:15 10° NE visible
01 Mar 7.5 02:16:19 10° SSW 04:36:17 80° WNW 04:53:12 10° NE visible
01 Mar 8.8 22:11:34 10° S 00:34:09 33° ESE 01:11:13 10° ENE visible
02 Mar 7.3 05:00:56 10° SW 06:23:01 37° WNW 06:35:41 10° N visible
02 Mar 8.3 23:59:01 10° SSW 02:35:31 64° SE 03:01:04 10° NE visible
03 Mar 9.4 21:57:22 10° SE 22:22:08 11° ESE 22:40:10 10° ESE visible
04 Mar 7.5 02:08:13 10° SSW 04:28:39 75° WNW 04:45:43 10° NNE visible
04 Mar 8.7 22:01:16 10° S 00:27:35 36° ESE 01:04:40 10° ENE visible
05 Mar 7.3 04:57:00 10° SW 06:15:17 34° WNW 06:27:59 10° N visible
05 Mar 8.3 23:50:10 10° SSW 02:28:17 68° SE 02:53:42 10° NE visible
06 Mar 9.3 21:23:51 10° SE 22:16:33 13° ESE 22:45:53 10° ESE visible
07 Mar 7.6 02:00:04 10° SSW 04:20:49 71° WNW 04:38:04 10° NNE visible
07 Mar 8.7 21:51:09 10° S 00:27:08 39° ESE 00:57:49 10° ENE visible
08 Mar 7.3 04:53:30 10° WSW 06:07:26 31° WNW 06:20:07 10° N visible
